Theta_e
304 304 304 305 304 302 303 301 301 301 302 307 306 310 307 308 310 310 309 309 309 309 310 311 311 312 320 316 322 321 323 324 325 325 325 325 325 325 326 329 332 330 334 335
304 304 303 304 304 302 303 302 301 301 302 304 303 304 307 307 309 310 311 310 309 310 312 312 311 311 313 314 317 324 323 324 326 325 324 322 325 323 324 328 330 333 333 334
304 304 304 304 304 302 303 303 304 303 303 303 303 303 305 309 309 310 310 310 310 311 312 312 311 312 311 312 317 323 325 324 325 325 325 325 325 324 322 325 330 333 332 333
303 304 304 305 304 302 302 301 302 303 303 302 303 303 304 308 312 309 308 310 309 309 312 313 313 312 312 314 316 318 322 325 325 324 324 325 325 323 322 324 325 329 330 329
303 304 304 305 305 303 302 303 304 302 301 302 303 303 307 309 307 308 311 310 310 308 311 312 313 312 313 315 314 317 320 327 325 325 323 325 325 325 324 324 325 325 326 328
305 304 304 304 305 304 302 301 301 303 301 302 303 304 304 304 305 306 308 308 308 308 309 307 308 308 310 312 312 314 319 326 327 326 324 325 326 326 326 325 325 325 326 328
304 305 304 304 305 305 303 302 301 302 302 302 303 302 303 304 304 308 307 307 307 307 306 307 308 307 309 310 311 310 316 324 327 327 326 327 326 325 325 325 326 324 325 326
304 304 304 305 304 305 305 302 301 302 303 302 302 303 303 304 304 307 306 307 306 304 307 311 314 316 316 316 313 312 311 319 329 327 326 326 326 331 327 328 337 340 340 339
304 304 305 305 304 305 305 305 302 301 303 303 303 303 304 304 304 305 305 304 303 305 312 310 317 322 320 322 319 313 312 316 324 327 327 327 331 324 324 330 336 333 337 340
304 304 304 304 305 305 305 305 304 302 303 302 302 304 304 303 304 304 304 304 305 305 312 315 318 317 320 321 323 322 321 322 324 328 329 332 321 322 323 335 334 326 327 332
305 304 304 304 304 304 306 304 303 301 303 302 302 302 303 303 304 305 304 305 304 306 310 312 315 318 318 323 320 323 324 326 326 328 335 337 318 320 331 322 321 321 323 326
305 305 304 305 304 304 305 304 302 301 302 302 301 301 301 302 303 303 304 305 304 305 306 307 311 315 314 319 324 316 322 318 327 330 327 317 316 315 314 315 317 319 321 323
305 305 305 305 305 304 305 305 301 301 302 302 301 302 301 301 301 302 304 304 303 303 303 306 307 313 311 316 317 314 315 313 325 326 320 317 315 313 311 314 312 314 317 324
304 304 305 305 305 305 305 305 302 301 301 304 303 300 302 301 302 302 302 303 302 303 303 306 306 308 308 309 310 310 312 313 321 318 314 320 318 312 311 312 311 314 316 324
305 304 304 304 305 304 305 305 305 302 302 304 305 303 302 301 301 302 302 303 304 305 306 306 306 306 306 307 307 311 310 313 317 318 311 311 313 310 310 310 311 313 315 322
305 304 304 305 305 305 306 305 303 304 301 302 305 304 305 304 302 302 303 303 303 304 304 306 305 303 306 306 307 309 310 310 309 309 307 308 309 309 309 309 311 312 315 318
306 305 305 306 306 306 305 306 303 303 302 304 306 306 304 303 305 302 302 301 303 303 305 305 306 306 306 306 305 306 307 309 310 308 307 308 308 308 308 309 311 311 311 313
306 305 306 306 306 306 305 304 303 302 303 303 305 306 306 304 309 310 302 304 303 304 305 304 305 305 306 307 307 307 306 306 306 306 306 307 307 308 309 310 310 310 311 313
306 306 306 306 306 305 306 304 303 302 302 304 305 308 309 305 307 309 309 306 308 304 307 306 306 306 307 306 308 307 307 306 306 306 306 306 307 308 309 310 310 310 311 312
306 306 307 309 306 305 304 302 303 302 301 300 303 302 307 305 305 308 308 310 311 312 310 306 307 308 308 307 308 310 309 308 307 307 307 307 308 309 309 310 309 309 310 311
308 309 310 307 306 305 304 304 305 303 304 301 302 303 305 304 307 308 308 310 310 314 313 312 314 313 311 309 310 311 313 314 315 313 308 307 307 308 308 309 309 309 310 311
308 308 307 306 307 308 309 308 304 304 309 304 304 305 304 305 305 307 309 311 310 315 308 311 314 310 311 313 313 314 314 316 317 316 314 308 307 307 308 308 309 309 308 309
308 309 311 313 315 319 318 318 315 313 307 305 305 308 306 307 306 308 310 311 313 307 312 313 311 312 313 314 317 318 318 317 314 315 315 312 309 308 307 308 307 308 309 309
316 320 316 322 321 322 322 321 321 319 313 309 308 309 309 309 309 307 310 309 306 313 315 314 312 310 308 310 312 314 316 314 314 314 314 313 313 313 310 307 307 308 309 310
320 320 320 322 320 318 318 317 317 315 312 309 311 311 310 310 309 306 308 316 315 312 313 312 310 308 307 307 307 309 313 314 313 312 313 313 313 314 314 313 311 310 310 312
319 319 320 320 318 315 314 313 314 311 309 310 312 315 319 320 319 319 318 314 318 318 316 314 312 310 308 307 307 306 308 310 310 312 314 313 313 314 313 313 313 314 314 315
320 322 317 318 317 318 315 313 312 309 313 320 319 317 320 320 319 318 317 319 316 315 311 309 306 306 308 307 307 306 304 306 307 306 309 316 316 315 315 316 314 313 313 315
Wind_Speed
22 22 24 26 26 28 16 6 4 14 22 1 2 2 6 7 10 9 11 9 10 11 10 8 5 5 5 13 7 18 13 8 9 16 23 14 18 15 20 12 9 7 8 15
21 22 21 22 24 22 8 4 3 8 9 3 5 8 9 7 6 6 5 5 4 2 4 5 8 5 4 11 9 11 14 9 9 10 8 9 24 14 11 10 9 16 15 17
20 21 20 19 20 19 10 3 4 3 4 2 7 10 10 6 6 13 7 7 3 2 6 9 9 8 7 15 8 11 3 9 19 13 17 11 21 21 13 15 12 15 21 17
18 20 19 17 17 17 6 2 2 2 4 4 12 7 9 10 4 6 4 3 8 5 3 3 5 5 8 6 9 5 3 18 12 14 7 17 17 21 19 20 17 15 17 15
19 19 18 16 14 13 2 2 2 0 6 7 8 7 3 5 6 3 5 7 16 11 3 2 4 8 3 3 9 7 6 8 17 17 14 13 17 18 21 22 21 20 18 17
21 19 18 16 13 8 1 1 1 1 6 5 5 4 7 11 15 5 7 12 17 9 2 12 16 14 16 14 7 5 6 2 12 20 14 17 16 17 18 17 17 19 17 18
21 20 18 17 14 9 6 3 2 2 4 4 7 11 14 12 13 5 10 11 13 7 21 20 9 8 14 13 13 10 6 4 3 12 12 19 13 18 14 14 8 12 7 1
20 19 18 18 15 12 13 8 4 2 5 6 12 6 7 12 11 4 7 16 12 18 11 4 3 3 4 9 8 11 12 3 3 6 16 3 6 5 6 12 6 6 3 5
20 19 18 17 16 13 12 17 14 3 3 3 7 7 9 5 5 5 7 15 17 6 3 3 2 3 1 5 6 5 6 4 4 4 17 14 6 11 7 3 10 9 9 7
19 19 17 17 16 13 11 9 15 4 3 5 5 5 3 4 4 5 8 9 6 7 4 1 3 2 5 0 2 3 5 3 5 3 5 5 12 9 4 11 3 10 10 10
18 17 16 15 15 13 9 8 18 11 3 8 8 7 10 7 4 3 6 5 3 5 6 4 3 3 5 2 5 3 1 2 2 1 3 5 17 3 2 6 7 9 11 11
16 15 15 14 12 12 9 6 15 20 5 5 5 16 20 15 11 7 2 5 4 4 4 4 3 3 4 5 2 5 1 4 2 5 5 7 9 13 8 7 9 12 13 14
15 13 13 12 11 9 7 7 11 9 2 7 4 3 1 8 17 17 4 2 2 2 3 3 2 3 4 5 4 5 2 3 3 4 4 3 7 9 12 8 13 13 14 15
13 12 12 11 9 7 5 7 12 7 2 2 3 3 5 5 6 16 21 8 1 5 3 2 2 3 3 3 4 4 3 6 3 4 4 4 6 11 14 11 14 15 16 15
12 10 9 8 7 4 3 6 6 12 4 1 6 17 1 2 5 13 13 14 6 3 2 1 2 2 3 2 2 4 2 2 2 2 4 3 5 13 14 15 17 17 18 19
10 7 7 6 4 2 0 1 1 11 7 0 3 4 3 5 2 5 7 6 3 3 3 2 1 1 3 3 3 5 4 2 1 2 2 7 13 13 8 15 16 16 15 15
9 6 5 3 1 2 1 2 0 5 8 0 3 4 2 5 2 2 2 4 2 3 2 2 3 3 4 3 4 5 6 4 5 7 10 14 10 12 17 14 14 16 16 15
5 2 6 8 7 3 2 2 7 13 3 1 2 3 2 6 2 2 1 2 3 3 3 1 3 2 2 6 13 8 10 10 13 14 15 16 15 14 14 13 13 15 13 14
3 6 7 4 3 2 2 7 11 6 4 1 1 2 2 7 4 2 1 0 2 1 3 2 2 3 6 10 14 15 13 12 16 16 15 16 15 16 16 14 13 13 12 13
7 3 2 2 2 13 8 2 1 2 2 1 1 1 1 3 3 2 2 2 1 1 3 3 3 6 15 18 19 18 20 21 20 21 20 16 15 14 15 14 13 12 11 13
2 1 1 4 12 2 1 0 1 0 0 1 1 1 1 1 2 2 2 2 1 1 2 1 1 3 4 9 14 18 22 22 20 19 21 21 19 16 14 15 17 14 16 13
5 6 5 4 2 2 1 1 0 1 3 2 1 1 2 2 2 2 1 1 1 2 3 1 2 4 11 14 18 20 21 24 26 21 21 18 18 18 16 17 19 22 23 21
5 2 2 2 0 6 5 6 4 4 2 3 2 1 1 2 1 2 2 2 1 5 1 2 3 12 16 17 13 15 17 19 22 23 21 18 12 14 18 15 23 26 25 24
1 1 6 3 4 4 2 5 5 2 2 2 2 1 1 0 0 2 2 1 1 4 5 5 8 17 17 16 15 19 17 19 16 13 13 15 13 10 13 19 21 22 22 25
1 2 3 2 2 3 5 4 3 0 1 2 1 1 0 1 1 1 1 3 5 3 4 4 8 14 15 16 17 16 19 17 12 8 8 11 13 11 12 14 17 21 21 24
1 3 1 2 2 7 7 6 4 1 1 2 1 1 1 4 2 3 6 3 5 4 5 8 10 13 14 16 16 16 14 14 17 16 10 12 13 12 14 17 17 19 23 25
2 2 2 1 1 3 3 5 5 0 2 2 1 5 5 4 4 5 6 5 6 6 8 8 12 14 14 14 14 15 21 18 21 22 20 18 13 13 13 12 15 15 19 21
Wind_Direction
335 340 345 348 350 348 360 357 318 354 349 296 45 314 318 314 292 295 261 252 255 271 290 291 285 313 12 358 274 203 184 191 198 192 197 210 200 192 194 196 187 225 240 245
336 340 340 348 351 353 342 337 285 338 348 34 360 327 299 265 282 312 298 270 240 219 251 284 274 280 330 6 355 214 187 204 174 184 181 201 204 187 192 210 179 201 216 241
334 332 335 341 349 350 351 329 326 335 24 24 359 332 302 298 294 279 278 292 324 301 242 236 274 299 315 334 334 321 256 194 211 204 204 171 197 196 203 200 204 194 220 237
320 324 328 332 340 345 349 4 11 34 313 331 324 296 279 282 294 294 298 204 22 332 256 257 254 314 312 292 1 348 264 209 199 205 170 189 182 194 199 213 219 214 209 220
317 318 322 331 325 339 340 316 326 359 295 299 302 299 309 308 347 290 314 349 331 328 255 48 322 345 281 339 328 351 356 202 203 215 197 196 202 196 196 209 213 227 239 236
310 310 313 318 319 324 303 228 256 267 288 291 296 294 331 314 319 276 261 318 323 307 42 316 288 274 265 272 303 315 346 198 183 214 199 216 229 201 198 202 209 208 215 230
304 305 307 309 316 290 235 229 242 253 287 271 287 295 311 308 335 267 297 308 303 306 321 301 261 236 244 251 243 241 304 323 215 191 180 220 232 227 210 209 202 217 246 225
300 300 301 303 302 298 239 216 180 223 276 273 283 266 316 300 307 271 295 302 302 308 299 277 258 179 211 233 220 215 221 297 174 183 195 151 113 43 214 189 161 30 332 331
296 294 296 294 297 294 279 233 207 213 281 264 274 299 305 304 325 346 276 294 312 302 267 256 255 196 314 161 138 80 169 242 309 177 185 206 58 335 342 296 199 21 353 337
301 297 295 294 293 289 261 237 214 205 248 268 237 239 306 313 317 292 292 335 318 346 338 63 27 44 325 90 165 140 141 163 231 216 171 102 350 321 297 184 153 344 342 329
303 302 298 296 295 294 265 261 209 191 240 276 230 246 268 267 251 283 331 299 2 352 30 8 22 3 27 328 31 2 75 173 150 213 174 154 353 63 149 356 345 343 341 330
309 305 301 296 290 291 281 221 208 211 247 281 266 266 265 242 257 288 294 315 299 357 357 4 329 6 358 353 77 2 72 18 56 6 90 84 58 72 38 14 357 352 338 331
318 310 304 304 296 294 271 222 175 171 282 282 272 270 314 247 240 225 255 220 318 47 342 329 339 6 335 10 33 316 57 5 112 181 109 159 77 41 21 8 357 348 343 336
327 319 313 311 309 301 261 214 200 154 127 288 290 295 306 288 218 204 218 245 290 318 281 311 342 339 1 351 316 299 339 317 37 86 50 131 191 8 353 350 352 352 350 350
334 330 323 319 322 319 235 237 247 189 157 256 295 309 359 344 250 229 217 228 251 300 293 278 359 296 301 281 267 246 255 0 5 102 96 346 305 330 336 345 344 346 346 351
345 341 332 334 323 307 200 125 254 217 162 58 304 335 292 338 329 228 210 193 213 263 299 331 289 323 312 314 288 243 226 227 11 116 330 310 300 306 328 332 331 340 341 344
345 342 352 6 153 160 65 34 277 174 167 240 298 310 357 343 44 69 133 167 194 246 279 254 292 292 316 265 255 239 217 234 264 293 312 307 307 310 318 317 321 326 328 338
340 1 76 90 111 119 82 73 141 137 90 21 315 295 3 357 36 339 169 182 198 205 284 258 278 314 267 252 254 314 316 303 286 283 281 278 292 295 298 309 315 324 333 341
86 131 120 90 59 54 23 144 140 93 79 360 313 312 344 0 19 328 347 232 221 65 248 232 232 222 241 275 299 304 306 294 297 297 287 288 287 289 293 300 309 320 329 338
123 133 185 95 82 132 116 81 51 45 57 70 245 339 324 355 353 325 342 349 40 299 39 318 256 256 279 287 294 297 299 295 291 284 281 277 270 274 287 294 299 300 308 318
140 137 77 125 157 148 31 90 285 57 314 189 260 257 314 181 297 334 325 346 335 272 102 234 255 261 261 265 285 289 293 290 283 278 268 262 259 261 268 280 286 288 294 302
135 129 129 150 197 177 236 348 303 203 357 184 235 271 226 261 236 241 269 307 191 242 10 269 260 254 271 295 293 290 287 287 281 270 266 256 256 252 253 258 269 275 281 287
130 135 157 201 243 27 41 352 322 352 187 215 216 237 221 204 231 290 321 338 327 307 320 291 270 314 320 324 317 297 289 299 286 272 255 247 247 255 251 254 258 270 278 281
214 65 17 35 13 13 302 317 300 3 225 201 199 245 224 130 145 7 311 43 249 5 340 12 328 338 338 344 343 350 339 332 321 276 243 240 247 251 254 239 243 258 272 282
36 54 52 50 324 272 288 301 304 11 267 158 194 214 287 148 121 114 265 351 22 54 345 300 325 330 342 349 348 345 360 353 336 320 275 258 249 246 252 243 241 249 258 267
89 68 70 348 322 7 12 4 12 127 218 191 208 287 285 52 46 12 13 42 34 9 341 335 332 332 336 333 341 354 350 359 357 352 309 275 265 256 256 263 259 255 253 257
83 79 47 17 299 298 330 352 349 211 250 20 324 35 8 346 36 20 10 17 4 344 338 341 338 340 342 341 342 343 356 360 360 354 350 346 289 274 260 259 264 250 244 243